{"data":{"norad_id":62512,"epoch":"2026-05-24T22:11:40.746624Z","epoch_age_seconds":78733,"freshness":"FRESH","line1":"1 62512U 25004B   26144.92477716  .00177181  00000+0  13494-2 0  9994","line2":"2 62512  43.0007 331.6318 0004183 263.2842  96.7550 15.70933604 79196","mean_motion":15.70933604,"eccentricity":0.0004183,"inclination_deg":43.0007,"raan_deg":331.6318,"arg_perigee_deg":263.2842,"mean_anomaly_deg":96.755,"bstar":0.0013494,"rev_number":7919,"period_min":91.665236285823,"perigee_km":353.41055241685,"apogee_km":359.04452178859,"semimajor_km":6734.3645371027,"source":"CELESTRAK","updated_at":"2026-05-25T13:38:19.701714Z"}}